[[{"header":{"parameterUnit":"m.s-1","parameterCategory":1,"la1":30.2991,"la2":30.254,"lo1":-89.0895,"lo2":-89.0444,"dy":0.0017,"dx":0.0017,"nx":28,"ny":28,"refTime":"2025-03-21T03:00:00:Z","depth":0,"parameterNumber":2,"parameterNumberName":"U-component_of_WINDS"},"data":[0,0,0,0,0,0,0,0,0,0,0,0,0,0,0,0,0,0,0,0,0,0,0,0,0,0,0,0,0,0,0,0,0,0,0,0,0,0,0,0,0,0,0,0,0,0,0,0,0,0,0,0,0,0,0,0,0,0,-3.8936,-3.8936,0,-3.8933,-3.8933,-3.8933,-3.8874,-3.8873,-3.8871,-3.887,-3.8866,-3.8867,-3.8868,0,0,0,0,0,0,0,0,0,0,0,0,0,-3.8893,-3.8894,-3.8936,-3.8936,-3.8936,-3.8933,-3.8933,-3.8933,-3.8874,-3.8873,-3.8871,-3.8869,-3.8865,-3.8867,-3.8869,0,0,0,0,0,0,0,0,0,0,0,0,0,-3.8903,-3.8894,-3.8936,-3.8907,-3.8904,-3.8933,-3.8933,-3.8933,-3.8875,-3.8873,-3.887,-3.8868,-3.8865,-3.8867,-3.8869,-3.8925,0,0,-3.8875,-3.8875,0,0,0,0,0,0,0,0,-3.8902,-3.8904,-3.8911,-3.8909,-3.8906,-3.8902,-3.8916,-3.893,-3.8875,-3.8886,-3.887,-3.8867,-3.888,-3.888,-3.8884,-3.8925,-3.8925,-3.8875,-3.8876,-3.8877,-3.8877,0,0,0,0,0,0,0,-3.8902,-3.8904,-3.8935,-3.8911,-3.8908,-3.8894,-3.8893,-3.8918,-3.8895,-3.8885,-3.8881,-3.8881,-3.8878,-3.8883,-3.8884,-3.8925,-3.8875,-3.8876,-3.8878,-3.8878,-3.9012,-3.9014,0,0,0,0,0,0,-3.8905,-3.8904,-3.8935,-3.8935,-3.8899,-3.8896,-3.8895,-3.8905,-3.8895,-3.8891,-3.8883,-3.8878,-3.888,-3.8882,-3.8883,-3.8949,-3.8877,-3.8879,-3.888,-3.9009,-3.9012,-3.9015,0,0,0,0,0,0,-3.8904,-3.8908,-3.8935,-3.8918,-3.8921,-3.8899,-3.8911,-3.8906,-3.8911,-3.8893,-3.8889,-3.8892,-3.8879,-3.8881,-3.8915,-3.8948,-3.8879,-3.8881,-3.9007,-3.901,-3.9014,-3.908,0,0,0,0,0,0,-3.8903,-3.8908,-3.893,-3.8919,-3.8922,-3.8967,-3.8913,-3.8908,-3.8915,-3.8909,-3.8901,-3.8898,-3.8877,-3.8913,-3.8917,-3.8949,-3.8883,-3.9004,-3.9008,-3.9012,-3.9075,-3.9085,-3.9094,0,0,0,0,0,-3.8902,-3.8948,-3.8931,-3.8935,-3.8948,-3.8969,-3.8971,-3.8946,-3.8918,-3.8939,-3.8927,-3.8898,-3.8944,-3.8917,-3.8921,-3.8954,-3.9001,-3.9007,-3.9012,-3.907,-3.9083,-3.9094,0,0,0,0,0,0,-3.8963,-3.8947,-3.8927,-3.8972,-3.8972,-3.8959,-3.8985,-3.8961,-3.897,-3.8963,-3.8933,-3.8932,-3.8971,-3.8966,-3.8936,-3.9009,-3.8967,-3.8974,-3.901,-3.9022,-3.9032,-3.9032,-3.8884,0,0,0,0,0,-3.8982,-3.9001,-3.8985,-3.9026,-3.9027,-3.9007,-3.9015,-3.8996,-3.8996,-3.8995,-3.8987,-3.8987,-3.9002,-3.9012,-3.9024,-3.9074,-3.9071,-3.9099,-3.9109,-3.9117,-3.9123,-3.9149,-3.9161,-3.9033,-3.9032,-3.9032,0,0,-3.9021,-3.9014,-3.9028,-3.9038,-3.9036,-3.9056,-3.9007,-3.903,-3.9045,-3.8999,-3.9031,-3.9025,-3.9023,-3.9066,-3.9084,-3.9063,-3.9158,-3.9124,-3.9131,-3.9132,-3.9155,-3.9168,-3.9178,-3.9036,-3.9035,-3.9035,0,0,-3.9101,-3.9098,-3.9132,-3.9131,-3.9129,-3.9115,-3.9124,-3.9114,-3.9108,-3.914,-3.9106,-3.9123,-3.9149,-3.9149,-3.9153,-3.9234,-3.9207,-3.9239,-3.929,-3.9316,-3.9326,-3.9335,-3.9364,-3.9374,-3.9245,-3.9246,-3.9246,0,-3.9149,-3.9178,-3.9152,-3.9178,-3.9183,-3.9143,-3.9177,-3.9177,-3.918,-3.9185,-3.9161,-3.9193,-3.9189,-3.9231,-3.9251,-3.9255,-3.9263,-3.924,-3.9327,-3.9335,-3.9343,-3.937,-3.9381,-3.9249,-3.9249,-3.9249,-3.9248,0,-3.9237,-3.9258,-3.9285,-3.9289,-3.9298,-3.9327,-3.9305,-3.9318,-3.9298,-3.9287,-3.932,-3.9314,-3.9324,-3.9333,-3.9315,-3.9373,-3.936,-3.9332,-3.929,-3.936,-3.9384,-3.9395,-3.9255,-3.9254,-3.9252,-3.9251,0,0,-3.9356,-3.9345,-3.9355,-3.9356,-3.9352,-3.9367,-3.9395,-3.9405,-3.9416,-3.9419,-3.9442,-3.9465,-3.9439,-3.9444,-3.9425,-3.9447,-3.9512,-3.9417,-3.9416,-3.9434,-3.9575,-3.9595,-3.9608,-3.9495,-3.9496,-3.9498,-3.9575,0,-3.9433,-3.948,-3.9457,-3.9507,-3.9525,-3.9488,-3.9512,-3.9512,-3.9502,-3.9517,-3.9506,-3.9522,-3.9488,-3.949,-3.9511,-3.95,-3.954,-3.9494,-3.9515,-3.9516,-3.9515,-3.9621,-3.9642,-3.9715,-3.9585,-3.9586,-3.9588,0,-3.9529,-3.9537,-3.9588,-3.958,-3.9587,-3.9609,-3.9617,-3.9631,-3.9631,-3.9622,-3.9627,-3.9603,-3.963,-3.9589,-3.9625,-3.9595,-3.9602,-3.9598,-3.9601,-3.9601,-3.9555,-3.9623,-3.9738,-3.9749,-3.9603,-3.9601,-3.96,0,-3.9609,-3.9633,-3.9666,-3.9668,-3.966,-3.9677,-3.9674,-3.9671,-3.9679,-3.9686,-3.969,-3.9701,-3.9706,-3.9714,-3.9694,-3.9666,-3.9733,-3.969,-3.9726,-3.9727,-3.9741,-3.974,-3.9858,-3.9748,-3.9747,-3.9747,-3.9747,0,-3.9698,-3.973,-3.9702,-3.9723,-3.9758,-3.9732,-3.9768,-3.9762,-3.976,-3.9778,-3.9747,-3.9765,-3.9737,-3.9753,-3.9737,-3.9769,-3.9772,-3.9766,-3.9761,-3.9768,-3.9769,-3.9772,-3.9766,-3.975,-3.9749,-3.9749,-3.9748,0,-3.9793,-3.9775,-3.9809,-3.9799,-3.9797,-3.9824,-3.9815,-3.9834,-3.9822,-3.9846,-3.985,-3.9832,-3.9849,-3.9829,-3.9844,-3.9834,-3.9878,-3.9866,-3.9878,-3.9874,-3.9911,-3.9907,-4.0033,-4.0049,-3.9929,-3.9931,-3.9932,0,-3.985,-3.9874,-3.9867,-3.9877,-3.9876,-3.9893,-3.9901,-3.9877,-3.9886,-3.9888,-3.9906,-3.992,-3.993,-3.9958,-3.9946,-3.9958,-3.9945,-3.9989,-3.9947,-3.9953,-3.9945,-3.9944,-3.9946,-3.9997,-3.9999,-4.0,-4.0001,0,-3.9953,-3.9943,-3.9956,-3.9965,-3.9976,-3.9982,-3.9986,-3.9996,-3.9971,-3.9983,-4.0,-4.0008,-4.0023,-4.0038,-4.0046,-4.0043,-4.0018,-4.0014,-4.0023,-4.003,-4.0036,-4.0033,-3.99,-4.0011,-4.001,-4.0009,-4.0009,-4.0008,-4.003,-4.005,-4.0048,-4.0063,-4.0064,-4.0068,-4.0085,-4.0076,-4.0089,-4.01,-4.0085,-4.0106,-4.0105,-4.0113,-4.0113,-4.0129,-4.011,-4.0123,-4.0126,-4.013,-4.0135,-4.0034,-4.013,-4.013,-4.013,-4.013,-4.0129,0,-4.0131,-4.0128,-4.0142,-4.0149,-4.0161,-4.0137,-4.014,-4.0151,-4.017,-4.0171,-4.0182,-4.0201,-4.0215,-4.0204,-4.0216,-4.023,-4.0219,-4.0234,-4.0232,-4.0232,-4.0151,-4.0142,-4.0243,-4.0243,-4.0243,-4.0243,-4.0243,-4.0243,-4.0185,-4.0217,-4.0207,-4.0239,-4.0236,-4.0256,-4.026,-4.0264,-4.0265,-4.0288,-4.0299,-4.0292,-4.0289,-4.03,-4.0311,-4.0308,-4.0313,-4.0332,-4.0325,-4.0249,-4.0238,-4.0227,-4.0218,-4.0334,-4.0334,-4.0404,-4.0405,-4.0405]},{"header":{"parameterUnit":"m.s-1","parameterCategory":1,"la1":30.2991,"la2":30.254,"lo1":-89.0895,"lo2":-89.0444,"dy":0.0017,"dx":0.0017,"nx":28,"ny":28,"refTime":"2025-03-21T03:00:00:Z","depth":0,"parameterNumber":3,"parameterNumberName":"V-component_of_WINDS"},"data":[0,0,0,0,0,0,0,0,0,0,0,0,0,0,0,0,0,0,0,0,0,0,0,0,0,0,0,0,0,0,0,0,0,0,0,0,0,0,0,0,0,0,0,0,0,0,0,0,0,0,0,0,0,0,0,0,0,0,-1.4562,-1.4562,0,-1.4532,-1.4532,-1.4531,-1.4478,-1.4477,-1.4476,-1.4475,-1.4445,-1.4446,-1.4446,0,0,0,0,0,0,0,0,0,0,0,0,0,-1.4574,-1.4574,-1.4562,-1.4562,-1.4561,-1.4532,-1.4532,-1.4531,-1.4479,-1.4477,-1.4476,-1.4475,-1.4445,-1.4445,-1.4446,0,0,0,0,0,0,0,0,0,0,0,0,0,-1.4559,-1.4574,-1.4562,-1.4532,-1.4529,-1.4532,-1.4532,-1.4531,-1.4479,-1.4477,-1.4476,-1.4474,-1.4445,-1.4445,-1.4446,-1.4477,0,0,-1.4446,-1.4446,0,0,0,0,0,0,0,0,-1.456,-1.4559,-1.4536,-1.4534,-1.453,-1.4507,-1.4525,-1.4513,-1.4479,-1.4498,-1.4475,-1.4474,-1.4467,-1.4466,-1.4463,-1.4475,-1.4474,-1.4446,-1.4446,-1.4446,-1.4447,0,0,0,0,0,0,0,-1.4561,-1.456,-1.455,-1.4536,-1.4532,-1.4519,-1.4516,-1.4522,-1.4491,-1.4496,-1.4492,-1.4489,-1.4465,-1.4463,-1.4462,-1.4474,-1.4446,-1.4446,-1.4447,-1.4447,-1.4509,-1.451,0,0,0,0,0,0,-1.4567,-1.4561,-1.4551,-1.4549,-1.4542,-1.452,-1.4516,-1.4516,-1.4491,-1.4486,-1.4491,-1.4487,-1.4464,-1.4462,-1.4461,-1.4495,-1.4446,-1.4447,-1.4447,-1.4507,-1.4509,-1.4511,0,0,0,0,0,0,-1.4567,-1.4566,-1.4552,-1.4554,-1.4551,-1.4522,-1.4522,-1.4516,-1.4514,-1.4487,-1.4481,-1.4494,-1.4462,-1.4461,-1.4473,-1.4493,-1.4447,-1.4447,-1.4506,-1.4508,-1.451,-1.4565,0,0,0,0,0,0,-1.4568,-1.4567,-1.4578,-1.4555,-1.4551,-1.4565,-1.4524,-1.4517,-1.4515,-1.451,-1.4489,-1.4484,-1.4461,-1.4473,-1.4473,-1.4493,-1.4447,-1.4504,-1.4507,-1.4509,-1.4561,-1.4568,-1.4575,0,0,0,0,0,-1.4568,-1.4595,-1.4579,-1.4578,-1.4565,-1.4567,-1.4565,-1.4538,-1.4517,-1.4528,-1.451,-1.4484,-1.4491,-1.4475,-1.4474,-1.4495,-1.4502,-1.4506,-1.4509,-1.4558,-1.4567,-1.4575,0,0,0,0,0,0,-1.4623,-1.4592,-1.4574,-1.4594,-1.4583,-1.4558,-1.4571,-1.4548,-1.4544,-1.4539,-1.4506,-1.4502,-1.4519,-1.4508,-1.449,-1.4523,-1.4493,-1.4496,-1.453,-1.4538,-1.4545,-1.4548,-1.4447,0,0,0,0,0,-1.4637,-1.4641,-1.4613,-1.4634,-1.4629,-1.4601,-1.4601,-1.4581,-1.4569,-1.4564,-1.4547,-1.4536,-1.4536,-1.4536,-1.4534,-1.4559,-1.4553,-1.4572,-1.4579,-1.4585,-1.4589,-1.46,-1.4608,-1.4522,-1.4522,-1.4522,0,0,-1.4667,-1.465,-1.4655,-1.4644,-1.4634,-1.4638,-1.4598,-1.4604,-1.4607,-1.4565,-1.4575,-1.4563,-1.4548,-1.4567,-1.4574,-1.4558,-1.4611,-1.459,-1.4595,-1.4595,-1.4605,-1.4613,-1.462,-1.4525,-1.4524,-1.4524,0,0,-1.4723,-1.4711,-1.4726,-1.4716,-1.4701,-1.4682,-1.4685,-1.4663,-1.4653,-1.4663,-1.4631,-1.4634,-1.4634,-1.4625,-1.462,-1.4672,-1.4648,-1.4672,-1.4709,-1.4721,-1.4728,-1.4733,-1.4752,-1.4759,-1.4676,-1.4676,-1.4676,0,-1.4762,-1.4767,-1.4737,-1.4745,-1.4742,-1.4703,-1.4718,-1.471,-1.4695,-1.4693,-1.4675,-1.4674,-1.4661,-1.4677,-1.4689,-1.4687,-1.469,-1.4675,-1.4729,-1.4735,-1.474,-1.4757,-1.4764,-1.4679,-1.4679,-1.4678,-1.4678,0,-1.4816,-1.482,-1.4834,-1.482,-1.4817,-1.4829,-1.4801,-1.4802,-1.4782,-1.4765,-1.4775,-1.4759,-1.4752,-1.4754,-1.4735,-1.4767,-1.4758,-1.4735,-1.4704,-1.4751,-1.4767,-1.4773,-1.4683,-1.4682,-1.4681,-1.4681,0,0,-1.4907,-1.4875,-1.488,-1.4873,-1.4852,-1.4855,-1.4864,-1.4858,-1.4859,-1.485,-1.4857,-1.4857,-1.4836,-1.4831,-1.481,-1.482,-1.4862,-1.4796,-1.4795,-1.4809,-1.4895,-1.4912,-1.492,-1.4845,-1.4846,-1.4847,-1.4896,0,-1.4959,-1.4973,-1.4946,-1.4967,-1.497,-1.4933,-1.4941,-1.4929,-1.4913,-1.4913,-1.4896,-1.4896,-1.4868,-1.4865,-1.4873,-1.4855,-1.4879,-1.4851,-1.4852,-1.4852,-1.4857,-1.4928,-1.4947,-1.4994,-1.4902,-1.4903,-1.4904,0,-1.5021,-1.5014,-1.5036,-1.5013,-1.5013,-1.5021,-1.5012,-1.5013,-1.4999,-1.4986,-1.498,-1.4955,-1.4963,-1.4932,-1.4942,-1.4924,-1.4923,-1.4914,-1.4915,-1.4914,-1.4881,-1.493,-1.5008,-1.5015,-1.4913,-1.4912,-1.4912,0,-1.5085,-1.5081,-1.5093,-1.5088,-1.5062,-1.5068,-1.5057,-1.5041,-1.5039,-1.5031,-1.5029,-1.5023,-1.502,-1.5015,-1.4989,-1.4969,-1.5002,-1.497,-1.4992,-1.4992,-1.5001,-1.5001,-1.508,-1.5,-1.5,-1.4999,-1.4999,0,-1.5146,-1.5161,-1.5121,-1.5129,-1.5144,-1.5112,-1.5127,-1.5113,-1.5099,-1.5103,-1.507,-1.5074,-1.504,-1.504,-1.502,-1.5031,-1.503,-1.502,-1.5014,-1.5023,-1.5024,-1.5022,-1.5018,-1.5001,-1.5001,-1.5,-1.5,0,-1.522,-1.5195,-1.5205,-1.5179,-1.5173,-1.5185,-1.5162,-1.5168,-1.515,-1.5155,-1.5154,-1.5125,-1.5124,-1.5097,-1.5091,-1.5077,-1.5096,-1.5084,-1.5101,-1.5097,-1.5121,-1.5119,-1.5202,-1.5211,-1.5125,-1.5126,-1.5126,0,-1.5261,-1.5271,-1.5246,-1.5246,-1.5237,-1.5237,-1.5234,-1.5203,-1.5202,-1.5185,-1.5193,-1.5189,-1.5184,-1.5184,-1.5162,-1.5156,-1.5144,-1.5174,-1.5143,-1.5151,-1.5145,-1.5145,-1.5145,-1.518,-1.5181,-1.5182,-1.5183,0,-1.5336,-1.5323,-1.532,-1.5312,-1.5309,-1.5302,-1.5292,-1.5294,-1.526,-1.526,-1.5258,-1.5254,-1.5246,-1.5243,-1.5233,-1.5222,-1.5197,-1.5193,-1.5197,-1.5207,-1.5216,-1.5211,-1.5119,-1.5191,-1.519,-1.519,-1.5189,-1.5189,-1.5395,-1.5402,-1.5385,-1.5382,-1.5372,-1.5363,-1.5367,-1.5349,-1.5347,-1.5338,-1.532,-1.532,-1.5305,-1.5289,-1.528,-1.528,-1.5265,-1.5272,-1.5274,-1.5276,-1.5281,-1.5215,-1.5278,-1.5278,-1.5277,-1.5277,-1.5277,0,-1.5468,-1.5455,-1.5453,-1.544,-1.5438,-1.5414,-1.5402,-1.5402,-1.5403,-1.5391,-1.5386,-1.5384,-1.538,-1.5357,-1.5351,-1.5355,-1.5343,-1.5354,-1.5354,-1.5352,-1.5295,-1.5291,-1.5364,-1.5364,-1.5364,-1.5364,-1.5364,-1.5364,-1.5506,-1.5516,-1.5501,-1.5505,-1.5492,-1.5492,-1.5487,-1.5479,-1.5469,-1.5468,-1.5464,-1.5449,-1.5433,-1.5424,-1.5419,-1.5413,-1.5412,-1.5427,-1.5417,-1.5364,-1.5356,-1.5348,-1.5344,-1.5427,-1.5427,-1.5474,-1.5474,-1.5474]}]]